HOECHSTEN Weather Reports


time (UTC)temp
F
wind
direction
speed
knots
gust
knots
rain 1hr
in
rain 24hr
in
rain mn
in
humidity
%
barometer
mb
20260507030211 43 192 13.0 0.0 0.00 0.00 0.00 59 1009.0
20260507023211 43 211 13.0 0.0 0.00 0.00 0.00 59 1009.0
20260507020211 43 231 10.4 0.0 0.00 0.00 0.00 59 1009.0
20260507013212 43 240 9.6 0.0 0.00 0.00 0.00 59 1008.9
20260507010211 43 238 11.3 0.0 0.00 0.00 0.00 59 1008.8
20260507003209 44 202 12.2 0.0 0.00 0.00 0.00 59 1008.5
20260507000209 44 202 13.9 0.0 0.00 0.00 0.00 60 1008.4
20260506233209 44 199 8.7 0.0 0.00 0.00 0.00 60 1008.2
20260506230209 44 225 10.4 0.0 0.00 0.00 0.00 60 1008.3
20260506223209 44 200 8.7 0.0 0.00 0.00 0.00 60 1008.2
20260506213209 44 248 11.3 0.0 0.00 0.00 0.28 59 1008.0
20260506210210 45 198 11.3 0.0 0.00 0.00 0.28 60 1008.0
20260506203210 45 211 8.7 0.0 0.00 0.00 0.28 60 1007.7
20260506200210 45 196 11.3 0.0 0.00 0.00 0.28 60 1007.4
20260506193215 45 200 10.4 0.0 0.00 0.00 0.28 60 1007.1
20260506190211 45 258 13.0 0.0 0.00 0.00 0.28 60 1006.9
20260506183209 45 204 15.6 0.0 0.00 0.00 0.28 60 1006.3
20260506180216 45 244 14.8 0.0 0.00 0.00 0.28 61 1006.2
20260506173210 46 209 10.4 0.0 0.00 0.00 0.28 61 1005.8
20260506170215 46 243 13.9 0.0 0.00 0.00 0.28 61 1005.4
20260506163210 45 222 14.8 0.0 0.00 0.00 0.28 62 1005.1
20260506160210 45 188 20.0 0.0 0.00 0.00 0.28 63 1004.8
20260506153210 45 0 18.2 0.0 0.00 0.00 0.28 64 1004.7
20260506150210 45 190 20.9 0.0 0.00 0.00 0.27 66 1004.8
20260506143210 46 216 26.9 0.0 0.00 0.00 0.09 69 1004.3
20260506140210 49 253 21.7 0.0 0.00 0.00 0.02 75 1003.8
20260506133211 54 157 9.6 0.0 0.00 0.00 0.00 76 1003.3
20260506130211 54 205 7.8 0.0 0.00 0.00 0.00 76 1003.2
20260506123210 54 227 7.8 0.0 0.00 0.00 0.00 76 1003.0
20260506120210 55 221 6.1 0.0 0.00 0.00 0.00 76 1002.8
20260506113217 56 197 3.5 0.0 0.00 0.00 0.00 75 1002.7
20260506110210 56 230 2.6 0.0 0.00 0.00 0.00 76 1003.0
20260506100213 54 18 1.7 0.0 0.00 0.00 0.00 76 1003.3
20260506093211 53 34 7.0 0.0 0.00 0.00 0.00 76 1003.2
20260506090211 53 56 4.3 0.0 0.00 0.00 0.00 76 1003.5
20260506083211 54 232 4.3 0.0 0.00 0.00 0.00 75 1003.5
20260506080212 53 334 2.6 0.0 0.00 0.00 0.00 75 1003.3
20260506073211 53 235 2.6 0.0 0.00 0.00 0.00 75 1003.4
20260506070212 51 244 3.5 0.0 0.00 0.00 0.00 75 1003.4
20260506060210 50 213 6.1 0.0 0.00 0.00 0.00 74 1003.3
20260506050211 49 233 3.5 0.0 0.00 0.00 0.00 72 1003.6
20260506043211 48 227 6.1 0.0 0.00 0.00 0.00 71 1003.7
20260506040211 48 242 3.5 0.0 0.00 0.00 0.00 69 1004.1
20260506033211 48 248 2.6 0.0 0.00 0.00 0.00 69 1004.4